Language selection

My Weather Profile Weather Topics  | 

Western Lake Superior: Past 24 Hour Conditions

 

Wawa Airport

04:00 PM EDT 20 October 2021
Disclaimer

This table is a summary of hourly weather conditions for the past 24 hours.
Please note that these observations might not always be representative of weather conditions over their associated marine area.

Date / Time
(EDT)
Wind(knots) Conditions Visibility(km) Pressure(kPa) Air tempC) Relative humidity(%) Dew pointC)
20 October 2021
16:00 NE 10 Cloudy 24 101.9 6 72 1
15:00 NE 9 gust 15 Cloudy 24 101.9 6 74 1
14:00 NE 10 Mostly Cloudy 24 101.9 6 73 2
13:00 NE 6 Mostly Cloudy 24 102.0 6 76 2
12:00 NNE 8 gust 17 Mostly Cloudy 24 102.0 5 79 2
11:00 NNE 9 gust 15 Mostly Cloudy 24 102.0 6 79 2
10:00 NE 10 gust 17 Mostly Cloudy 24 102.0 6 79 2
9:00 NE 8 gust 17 Cloudy 24 101.9 6 85 3
8:00 NE 9 gust 17 Mostly Cloudy 24 101.9 6 87 4
7:00 NNE 8 gust 19 Mostly Cloudy 24 101.8 6 91 5
6:00 NE 10 gust 15 N/A N/A 101.8 7 86 5
5:00 NE 9 N/A N/A 101.8 7 88 5
4:00 NNE 8 N/A N/A 101.7 8 90 6
3:00 NNE 10 gust 18 N/A N/A 101.7 8 91 6
2:00 NNE 10 gust 16 N/A N/A 101.6 9 93 8
1:00 NNW 5 N/A N/A 101.6 10 100 10
0:00 E 2 N/A N/A 101.5 6 100 6
19 October 2021
23:00 ESE 2 N/A N/A 101.5 7 99 7
22:00 SE 2 N/A N/A 101.4 8 97 8
21:00 SE 2 N/A N/A 101.4 9 94 9
20:00 S 3 Mainly Clear 24 101.4 12 85 10
19:00 SSW 5 Partly Cloudy 24 101.4 13 79 10
18:00 SW 6 Mostly Cloudy 24 101.3 16 65 9
17:00 WSW 6 Mostly Cloudy 24 101.3 16 63 9
16:00 SW 8 Mostly Cloudy 24 101.3 17 61 9

Zoom-in to make a selection

Map of Great Lakes - Lake Superior marine weather areas Mid Superior - 45001 East Superior - 45004 West Superior - 45006 Slate Island - 45136 Lake Of the Woods - 45148 Kenora Airport Royal Island Armstrong Airport Caribou Island Marathon Airport Pukaskwa National Park Thunder Bay Airport Welcome Island Little Flatland Island Sault Ste. Marie Airport Wawa Airport
Legend:
buoy Buoy
land station Land Station

Great Lakes - Lake Superior Area

Another Region

What we are doing

Date modified: